• Join FlightAware (Why Join?)
  • Login
  • US Flag 
09:01PM EST


 

Airport Tracker/Info


-or-


 

Live Flight TrackerFlight Track Log ✈ LOF3400 ✈ 03-Apr-2014 ✈ KORD - KPIA

Flight Track Log - Related Links

Times and Time Zones

All times are in EDT time to prevent confusion due to time zone crossing. See the LOF3400 flight status page for this flight to view local times or setup timezone preferences in your user account.

Time Position Orientation Groundspeed Altitude Reporting Facility
EDT Latitude Longitude Course Direction KTS MPH feet Rate Location/Type
03:27PM 41.9500 -87.8667 253° West 191 220 2,400  Level Chicago TRACON
03:28PM 41.9000 -87.9167 217° Southwest 246 283 4,600 1,400 Climbing Chicago TRACON
03:29PM 41.8500 -88.0000 231° Southwest 283 326 5,200 923 Climbing Chicago TRACON
03:30PM 41.9000 -88.2403 270° West  Level FlightAware Approximate
03:30PM 41.8281 -88.0383 232° Southwest 277 319 6,000  Level Chicago Center
03:31PM 41.8791 -88.3547 255° West  Level FlightAware Approximate
03:31PM 41.7783 -88.1153 229° Southwest 277 319 7,400  Level Chicago Center
03:32PM 41.8548 -88.4681 253° West  Level FlightAware Approximate
03:32PM 41.7586 -88.2158 255° West 275 316 10,100  Level Chicago Center
03:33PM 41.8288 -88.5808 253° West  Level FlightAware Approximate
03:33PM 41.7656 -88.3214 275° West 285 328 11,800  Level Chicago Center
03:34PM 41.7744 -88.4469 275° West 312 359 13,400 1,210 Climbing Chicago Center
03:35PM 41.7814 -88.5708 274° West 333 383 14,300 1,056 Climbing Chicago Center
03:36PM 41.7892 -88.6983 275° West 341 392 15,600 816 Climbing Chicago Center
03:37PM 41.7772 -88.8297 263° West 352 405 16,000 194 Climbing Chicago Center
03:38PM 41.6986 -88.9231 222° Southwest 370 426 16,000  Level Chicago Center
03:39PM 41.6081 -88.9942 210° Southwest 379 436 16,000 -484 Level Chicago Center
03:40PM 41.5183 -89.0606 209° Southwest 373 429 15,000 -1,210 Descending Chicago Center
03:41PM 41.4261 -89.1306 210° Southwest 377 434 13,500 -1,500 Descending Chicago Center
03:42PM 41.3356 -89.1975 209° Southwest 376 433 11,900 -1,452 Descending Chicago Center
03:43PM 41.2486 -89.2658 211° Southwest 369 425 10,500 -919 Descending Chicago Center
03:44PM 41.1497 -89.3464 212° Southwest 355 409 10,000 -677 Descending Chicago Center
03:45PM 41.0967 -89.4169 225° Southwest 299 344 9,100 -1,161 Descending Chicago Center
03:47PM 41.0486 -89.4872 228° Southwest 273 314 7,600 -1,452 Descending Chicago Center
03:48PM 41.0008 -89.5553 227° Southwest 260 299 6,100 -1,452 Descending Chicago Center
03:49PM 40.9528 -89.6289 229° Southwest 260 299 4,600 -1,016 Descending Chicago Center
03:50PM 40.9103 -89.6992 231° Southwest 257 296 4,000 -290 Descending Chicago Center
03:51PM 40.8664 -89.7756 233° Southwest 232 267 4,000 -97 Level Chicago Center
03:52PM 40.8300 -89.8389 233° Southwest 224 258 3,800 -677 Descending Chicago Center
03:53PM 40.7878 -89.8744 213° Southwest 211 243 2,600 -629 Descending Chicago Center
03:54PM 40.7475 -89.8431 149° Southeast 194 223 2,500 -194 Descending Chicago Center
03:55PM 40.7183 -89.7922 127° Southeast 179 206 2,200 -484 Descending Chicago Center
03:56PM 40.6964 -89.7544 127° Southeast 149 171 1,500 -677 Descending Chicago Center
03:57PM 40.6758 -89.7169 126° Southeast 134 154 800 -677 Descending Chicago Center